Location: Newark
(48.8833°N, 0.9236°W)
Time: 21:42:58
(UTC+00:00)

Transit 4A - Pass Details

Date: 25 November 2019
Orbit: 870 x 975 km, 66.8° (Epoch: 08 December)

Event Time Altitude Azimuth Distance (km) Brightness Sun altitude
Exits shadow 02:48:06 15° 53° (NE) 2,187 10.3 -44.9°
Drops below altitude 10° 02:49:48 10° 68° (ENE) 2,542 10.8 -44.6°
Sets 02:53:02 0° 86° (E) 3,468 11.6 -44.1°
